COSMOS 1275 DEB, 39966

Orbit data source: Space-Track

COSMOS 1275 DEB, 39966 is space debris in LEO originally from a launch on Thu, 04 Jun 1981 UTC launched from the Plesetsk Missile And Space Complex (PKMTR). Debris objects in space refer to the collection of defunct objects orbiting the Earth. Examples of debris include non-operational satellites, rocket bodies, and fragments generated from explosions, collisions, or faulty payload assembly.

Loading next visibility...
Identifier
39966, 1981-053PC
Orbit
LEO
Country
Flag of CISCIS
Related business
Manufacturer
Unknown
Mission
Spacecraft
Bus & Motor
Unknown
Mass
Unknown
Launch date (UTC)
1981-06-04 (45 years ago)
Launch vehicle
Unknown
Launch site
Plesetsk Missile And Space Complex (PKMTR)
Object type
Payload
Rocket body
Debris
Shape & HBR
Unknown shape, 0.1 m
Radar Cross Section
Medium (>0.1 m² and <1 m²)

Expand to show TLE details & history
Last TLE update: 23 hours ago

TLE from 23 hours ago
0 COSMOS 1275 DEB
1 39966U 81053PC  26254.54173483  .00000843  00000-0  52056-3 0  9990
2 39966  82.7045 289.7795 0041728 120.8291  33.0327 14.03859576625248
Epoch: 2026-09-11T13:00Z
TLE epoch observation values (Epoch: 2026-09-11T13:00:05.889Z)
Latitude
25.68354°
Longitude
-79.31981°
Altitude
858.236 km
Speed
7.439 km/s
True Right ascension
07h 05m 04s
True Declination
25° 33' 05"
Sunlit
Object was in daylight at epoch
Visualization orbit readout
Latitude
Unknown
Longitude
Unknown
Altitude
Unknown
Speed
Unknown
Apparent Right ascension
Unknown
Apparent Declination
Unknown
Sunlit
N/A
Visualization observer readout
Local Sidereal Time
04:45:18
Azimuth
Unknown
Elevation
Unknown
Doppler factor
Unknown
Orbital elements
Apogee altitude
907.856 km
Perigee altitude
847.302 km
Semi-major axis
7,255.716 km
Eccentricity
0.00417
Inclination
82.7045°
RAAN
289.7795°
Arg. of periapsis
120.8291°
True anomaly
33.2945°
Mean anomaly
33.0327°
Eccentric anomaly
33.16349°
Mean motion
3.51174 °/min
Orbital period
102.51 mins
BSTAR
0.00052056
Loading maneuver chart data...
Computing Atmospheric mass density...
Loading historical data...
Loading historical data...
Loading historical data...
Loading historical data...
Loading historical data...
Loading historical data...
Loading historical data...

Documentation

Showing up to 5 results
|